TimeEST,TemperatureF,Dew PointF,Humidity,Sea Level PressureIn,VisibilityMPH,Wind Direction,Wind SpeedMPH,Gust SpeedMPH,PrecipitationIn,Events,Conditions,WindDirDegrees,DateUTC
12:17 AM,64.4,57.2,77,30.08,10.0,South,11.5,-,N/A,,Scattered Clouds,180,2013-01-30 05:17:00
12:37 AM,62.6,57.2,82,30.07,10.0,South,10.4,16.1,N/A,,Mostly Cloudy,180,2013-01-30 05:37:00
12:57 AM,62.6,59.0,88,30.07,10.0,South,11.5,16.1,N/A,,Mostly Cloudy,180,2013-01-30 05:57:00
1:17 AM,62.6,59.0,88,30.07,10.0,South,8.1,17.3,N/A,,Overcast,180,2013-01-30 06:17:00
1:37 AM,62.6,60.8,94,30.06,10.0,South,12.7,18.4,N/A,,Overcast,190,2013-01-30 06:37:00
1:57 AM,62.6,60.8,94,30.04,10.0,South,10.4,17.3,N/A,,Overcast,170,2013-01-30 06:57:00
2:17 AM,62.6,60.8,94,30.03,10.0,South,15.0,19.6,N/A,,Scattered Clouds,180,2013-01-30 07:17:00
2:37 AM,62.6,60.8,94,30.04,10.0,South,10.4,19.6,N/A,,Mostly Cloudy,180,2013-01-30 07:37:00
2:57 AM,62.6,60.8,94,30.03,10.0,South,9.2,-,N/A,,Overcast,180,2013-01-30 07:57:00
3:17 AM,62.6,60.8,94,30.02,10.0,South,12.7,17.3,N/A,,Overcast,190,2013-01-30 08:17:00
3:36 AM,64.4,60.8,88,30.02,10.0,South,10.4,19.6,N/A,,Overcast,180,2013-01-30 08:36:00
3:57 AM,64.4,60.8,88,30.01,10.0,South,8.1,23.0,N/A,,Overcast,190,2013-01-30 08:57:00
4:17 AM,64.4,60.8,88,30.00,10.0,South,10.4,18.4,N/A,,Overcast,180,2013-01-30 09:17:00
4:37 AM,64.4,60.8,88,29.99,10.0,South,11.5,18.4,N/A,,Overcast,180,2013-01-30 09:37:00
4:57 AM,64.4,60.8,88,29.98,10.0,SSE,11.5,19.6,N/A,,Overcast,160,2013-01-30 09:57:00
5:17 AM,64.4,60.8,88,29.97,10.0,SSE,13.8,18.4,N/A,,Overcast,160,2013-01-30 10:17:00
5:37 AM,64.4,60.8,88,29.96,10.0,South,12.7,23.0,N/A,,Overcast,180,2013-01-30 10:37:00
5:57 AM,64.4,60.8,88,29.95,10.0,South,15.0,24.2,N/A,,Overcast,180,2013-01-30 10:57:00
6:17 AM,64.4,60.8,88,29.95,10.0,South,15.0,25.3,N/A,,Overcast,180,2013-01-30 11:17:00
6:37 AM,64.4,60.8,88,29.95,10.0,South,12.7,21.9,N/A,,Overcast,180,2013-01-30 11:37:00
6:57 AM,66.2,60.8,83,29.95,10.0,South,18.4,27.6,N/A,,Overcast,180,2013-01-30 11:57:00
7:37 AM,66.2,60.8,83,29.94,10.0,South,15.0,23.0,N/A,,Overcast,180,2013-01-30 12:37:00
7:57 AM,66.2,62.6,88,29.94,10.0,South,12.7,21.9,N/A,,Overcast,190,2013-01-30 12:57:00
8:17 AM,66.2,62.6,88,29.93,10.0,South,11.5,28.8,N/A,,Overcast,170,2013-01-30 13:17:00
8:37 AM,66.2,62.6,88,29.92,10.0,South,15.0,23.0,N/A,,Overcast,180,2013-01-30 13:37:00
8:57 AM,66.2,62.6,88,29.91,10.0,South,16.1,24.2,N/A,,Overcast,170,2013-01-30 13:57:00
9:17 AM,66.2,62.6,88,29.91,7.0,South,16.1,28.8,N/A,,Overcast,180,2013-01-30 14:17:00
9:37 AM,64.4,62.6,94,29.90,7.0,South,18.4,25.3,N/A,,Overcast,170,2013-01-30 14:37:00
10:17 AM,66.2,62.6,88,29.90,7.0,South,13.8,21.9,N/A,,Overcast,180,2013-01-30 15:17:00
10:37 AM,66.2,62.6,88,29.89,7.0,South,18.4,23.0,N/A,Rain,Light Rain,170,2013-01-30 15:37:00
10:57 AM,66.2,62.6,88,29.89,7.0,South,13.8,23.0,N/A,,Overcast,180,2013-01-30 15:57:00
11:17 AM,66.2,62.6,88,29.87,7.0,South,12.7,20.7,N/A,,Light Drizzle,180,2013-01-30 16:17:00
11:37 AM,66.2,62.6,88,29.86,7.0,South,10.4,19.6,N/A,,Overcast,170,2013-01-30 16:37:00
11:57 AM,66.2,62.6,88,29.84,10.0,South,13.8,21.9,N/A,,Overcast,180,2013-01-30 16:57:00
12:37 PM,66.2,62.6,88,29.83,10.0,South,12.7,18.4,N/A,,Light Drizzle,180,2013-01-30 17:37:00
12:57 PM,66.2,62.6,88,29.80,10.0,SSE,12.7,19.6,N/A,,Overcast,160,2013-01-30 17:57:00
1:17 PM,68.0,62.6,83,29.79,10.0,South,11.5,20.7,N/A,,Overcast,170,2013-01-30 18:17:00
1:37 PM,69.8,62.6,78,29.76,10.0,South,13.8,27.6,N/A,,Overcast,180,2013-01-30 18:37:00
1:57 PM,69.8,62.6,78,29.74,10.0,South,11.5,19.6,N/A,,Mostly Cloudy,170,2013-01-30 18:57:00
2:17 PM,69.8,62.6,78,29.73,10.0,South,11.5,21.9,N/A,,Overcast,170,2013-01-30 19:17:00
2:37 PM,71.6,60.8,69,29.71,10.0,South,15.0,23.0,N/A,,Overcast,170,2013-01-30 19:37:00
2:57 PM,71.6,60.8,69,29.71,10.0,South,11.5,17.3,N/A,,Overcast,170,2013-01-30 19:57:00
3:17 PM,71.6,60.8,69,29.70,10.0,South,12.7,18.4,N/A,,Overcast,180,2013-01-30 20:17:00
3:37 PM,73.4,59.0,61,29.68,10.0,South,15.0,20.7,N/A,,Overcast,170,2013-01-30 20:37:00
3:57 PM,73.4,59.0,61,29.67,10.0,South,13.8,23.0,N/A,,Overcast,170,2013-01-30 20:57:00
4:17 PM,73.4,59.0,61,29.65,10.0,South,11.5,27.6,N/A,,Mostly Cloudy,170,2013-01-30 21:17:00
4:37 PM,73.4,57.2,57,29.65,10.0,South,13.8,23.0,N/A,,Mostly Cloudy,170,2013-01-30 21:37:00
4:57 PM,73.4,57.2,57,29.63,10.0,South,16.1,25.3,N/A,,Scattered Clouds,170,2013-01-30 21:57:00
5:17 PM,71.6,57.2,60,29.62,10.0,SSE,19.6,26.5,N/A,,Mostly Cloudy,160,2013-01-30 22:17:00
5:37 PM,71.6,57.2,60,29.61,10.0,SSE,13.8,29.9,N/A,,Mostly Cloudy,160,2013-01-30 22:37:00
5:57 PM,71.6,57.2,60,29.59,10.0,SSE,16.1,26.5,N/A,,Mostly Cloudy,160,2013-01-30 22:57:00
6:17 PM,71.6,57.2,60,29.58,10.0,South,17.3,36.8,N/A,,Scattered Clouds,170,2013-01-30 23:17:00
6:37 PM,69.8,57.2,64,29.56,10.0,SSE,17.3,24.2,N/A,,Clear,160,2013-01-30 23:37:00
6:57 PM,69.8,57.2,64,29.55,10.0,South,19.6,29.9,N/A,,Clear,170,2013-01-30 23:57:00
7:17 PM,69.8,57.2,64,29.54,10.0,SSE,21.9,34.5,N/A,,Clear,160,2013-01-31 00:17:00
7:37 PM,69.8,57.2,64,29.53,10.0,SSE,17.3,33.4,N/A,,Scattered Clouds,150,2013-01-31 00:37:00
8:17 PM,69.8,59.0,68,29.50,10.0,South,24.2,31.1,N/A,,Mostly Cloudy,170,2013-01-31 01:17:00
8:37 PM,69.8,59.0,68,29.49,10.0,South,18.4,31.1,N/A,,Mostly Cloudy,170,2013-01-31 01:37:00
8:57 PM,-9999,-9999,N/A,29.47,-9999.0,South,24.2,-,N/A,,Unknown,170,2013-01-31 01:57:00
9:17 PM,66.2,60.8,83,29.47,7.0,SSE,24.2,42.6,0.01,Rain,Rain,160,2013-01-31 02:17:00
9:57 PM,64.4,62.6,94,29.50,4.0,SSW,15.0,23.0,0.03,Rain,Heavy Rain,210,2013-01-31 02:57:00
10:17 PM,62.6,62.6,100,29.51,4.0,SSW,19.6,25.3,0.16,Rain,Rain,210,2013-01-31 03:17:00
10:37 PM,62.6,59.0,88,29.54,10.0,SW,13.8,27.6,0.23,Rain,Light Rain,230,2013-01-31 03:37:00
10:57 PM,60.8,55.4,82,29.54,10.0,SW,19.6,28.8,N/A,,Overcast,220,2013-01-31 03:57:00
11:37 PM,59.0,51.8,77,29.54,10.0,SW,18.4,25.3,N/A,Rain,Light Rain,220,2013-01-31 04:37:00
11:57 PM,55.4,51.8,88,29.56,4.0,SSW,21.9,34.5,N/A,Rain,Heavy Rain,210,2013-01-31 04:57:00